SL-14 R/B

Satellite information

Favourite Embed

Satellite Type and Status

ROCKET BODYIN ORBIT

Key statistics

Satellite SL-14 R/B at a glance.

Uptime

15102

Days in orbit

Revolutions

≈ 12.4

Per day

Orbit

LEO

Low Earth Orbit

Inclination

82.6

Latest

Satellite identification and parameters

Extended collection of information and parameters for SL-14 R/B.

Object identification

Identified? True

Debris? False

Object name: SL-14 R/B

International designator: 1984-084B

Object number (NORAD): 15172

Object ID (CCSDS): 15172

Country: COMMONWEALTH OF INDEPENDENT STATES (CIS)

Current information (Y/N): Y

RCS size: LARGE

Orbital parameters

Period: 115.886 minutes

Inclination: 82.5985 deg

SMA: 7873.722 km

Apoapsis: 1501.531 km

Periapsis: 1489.644 km

RAAN: 263.6234 deg

Eccentricy: 0.00075489

Argument of periapsis: 75.1651 deg

Mean anomaly: 36.5846 deg

Mean motion: 12.42603604 rev/day

Mean motion (dot): 0.00000019 rev/day2

B* drag term: 0.000067529438 1/REarth

Two-line elements (TLE)

Creation date: Dec. 12, 2025, 10:14 a.m.

Reference frame: TEME

Reference center: EARTH

Epoch: Dec. 12, 2025, 6:07 a.m. UTC

TLE line 0: 0 SL-14 R/B

TLE line 1: 1 15172U 84084B 25346.25548545 .00000019 00000-0 67529-4 0 9991

TLE line 2: 2 15172 82.5985 263.6234 0007549 75.1651 36.5846 12.42603604875180

Live tracking on map

Real-time ground track for satellite SL-14 R/B.

In-orbit conjunctions

A list of the most updated potential collisions computed for object SL-14 R/B.

Target Orbit TCA Probability of collision Miss distance Type
DELTA 1 DEB SSO 2025-10-13 07:52:10 0.00050641 145.0 (m) DEBRIS
JD 3 LEO 2025-06-23 07:14:48 0.002087368 164.0 (m) PAYLOAD

Associated space launch

A satellite for the GEO-IK geodetic system

SL-14 R/B was lifted into orbit during the mission ‘Tsiklon-3 | Geo-IK 5’, on board a Tsiklon-3 space rocket.

The launch took place on Aug. 8, 1984, 12:08 p.m. from 32/2.

For more information about the launch, click the button.

Launch to space Tsiklon-3 | Geo-IK 5
Tsiklon-3 | Geo-IK 5

Agency: N/A

Status: Launch Successful

Launch date: Aug. 8, 1984, 12:08 p.m. UTC

Rocket: Tsiklon-3

Launch pad: 32/2

Location: Plesetsk Cosmodrome, Russian Federation

...

Latest news about this satellite

There are no fresh news available about this satellite. Check back as we update our databases every day.


Newsletter sign-up

Weekly statistics, charts and insights to help you stay on top of the space industry.